Zurück zum Katalog

STARLINK-3131

AktivKommunikationVLEO
NORAD 49427·PAYLOAD·🇺🇸 United States

Gestartet Nov 13, 2021 von Cape Canaveral Space Force Station

Loading…

Nächste Überflüge (nächste 24 Stunden)

TLE

AktuellSource: CelesTrak SupGP

Epoche: Sep 14, 2026, 12:48 UTC

1 49427C 21104V   26257.53381944  .00017106  00000+0  54979-3 0  2571
2 49427  53.1569  88.5972 0001547  96.3235  85.7775 15.31710165    11

Verfolge STARLINK-3131 in Echtzeit mit AllMySat

Download on the App Store